Time,TemperatureF,DewpointF,PressureIn,WindDirection,WindDirectionDegrees,WindSpeedMPH,WindSpeedGustMPH,Humidity,HourlyPrecipIn,Conditions,Clouds,dailyrainin,SoftwareType,DateUTC
2013-03-04 00:01:00,19.0,13.0,30.15,East,82,0.0,-999.0,76,-99.99,,,-99.99,,2013-03-04 05:01:00,
2013-03-04 00:11:00,19.0,13.0,30.15,East,82,0.0,-999.0,76,-99.99,,,-99.99,,2013-03-04 05:11:00,
2013-03-04 00:22:00,19.0,13.0,30.15,East,82,0.0,-999.0,78,-99.99,,,-99.99,,2013-03-04 05:22:00,
2013-03-04 00:31:00,18.0,12.0,30.15,East,82,0.0,-999.0,78,-99.99,,,-99.99,,2013-03-04 05:31:00,
2013-03-04 00:42:00,18.0,12.0,30.15,East,82,0.0,-999.0,78,-99.99,,,-99.99,,2013-03-04 05:42:00,
2013-03-04 00:52:00,18.0,13.0,30.15,East,82,0.0,-999.0,79,-99.99,,,-99.99,,2013-03-04 05:52:00,
2013-03-04 01:01:00,18.0,13.0,30.15,East,82,0.0,-999.0,79,-99.99,,,-99.99,,2013-03-04 06:01:00,
2013-03-04 01:11:00,18.0,13.0,30.15,East,82,0.0,-999.0,79,-99.99,,,-99.99,,2013-03-04 06:11:00,
2013-03-04 01:21:00,17.0,12.0,30.15,East,82,0.0,-999.0,79,-99.99,,,-99.99,,2013-03-04 06:21:00,
2013-03-04 01:32:00,18.0,13.0,30.15,East,82,0.0,-999.0,80,-99.99,,,-99.99,,2013-03-04 06:32:00,
2013-03-04 01:42:00,18.0,13.0,30.15,East,82,0.0,-999.0,80,-99.99,,,-99.99,,2013-03-04 06:42:00,
2013-03-04 01:52:00,18.0,13.0,30.15,East,82,0.0,-999.0,81,-99.99,,,-99.99,,2013-03-04 06:52:00,
2013-03-04 02:01:00,18.0,13.0,30.15,East,82,0.0,-999.0,81,-99.99,,,-99.99,,2013-03-04 07:01:00,
2013-03-04 02:11:00,18.0,13.0,30.15,East,82,0.0,-999.0,81,-99.99,,,-99.99,,2013-03-04 07:11:00,
2013-03-04 02:21:00,17.0,12.0,30.15,East,82,0.0,-999.0,82,-99.99,,,-99.99,,2013-03-04 07:21:00,
2013-03-04 02:32:00,17.0,12.0,30.15,East,82,0.0,-999.0,82,-99.99,,,-99.99,,2013-03-04 07:32:00,
2013-03-04 02:41:00,17.0,12.0,30.15,East,82,0.0,-999.0,82,-99.99,,,-99.99,,2013-03-04 07:41:00,
2013-03-04 02:52:00,18.0,14.0,30.16,East,82,0.0,-999.0,83,-99.99,,,-99.99,,2013-03-04 07:52:00,
2013-03-04 03:02:00,18.0,14.0,30.16,East,82,0.0,-999.0,83,-99.99,,,-99.99,,2013-03-04 08:02:00,
2013-03-04 03:11:00,18.0,14.0,30.16,East,82,0.0,-999.0,83,-99.99,,,-99.99,,2013-03-04 08:11:00,
2013-03-04 03:21:00,19.0,15.0,30.16,East,82,0.0,-999.0,83,-99.99,,,-99.99,,2013-03-04 08:21:00,
2013-03-04 03:32:00,18.0,14.0,30.16,East,82,0.0,-999.0,83,-99.99,,,-99.99,,2013-03-04 08:32:00,
2013-03-04 03:41:00,18.0,14.0,30.16,East,82,0.0,-999.0,83,-99.99,,,-99.99,,2013-03-04 08:41:00,
2013-03-04 03:52:00,18.0,13.0,30.16,East,82,0.0,-999.0,82,-99.99,,,-99.99,,2013-03-04 08:52:00,
2013-03-04 04:01:00,18.0,13.0,30.16,East,82,0.0,-999.0,82,-99.99,,,-99.99,,2013-03-04 09:01:00,
2013-03-04 04:11:00,18.0,13.0,30.16,East,82,0.0,-999.0,82,-99.99,,,-99.99,,2013-03-04 09:11:00,
2013-03-04 04:21:00,18.0,14.0,30.16,East,82,0.0,-999.0,83,-99.99,,,-99.99,,2013-03-04 09:21:00,
2013-03-04 04:32:00,18.0,14.0,30.16,East,82,0.0,-999.0,83,-99.99,,,-99.99,,2013-03-04 09:32:00,
2013-03-04 04:42:00,18.0,14.0,30.16,East,82,0.0,-999.0,83,-99.99,,,-99.99,,2013-03-04 09:42:00,
2013-03-04 04:52:00,18.0,14.0,30.16,East,82,0.0,-999.0,83,-99.99,,,-99.99,,2013-03-04 09:52:00,
2013-03-04 05:01:00,18.0,14.0,30.16,East,82,0.0,-999.0,83,-99.99,,,-99.99,,2013-03-04 10:01:00,
2013-03-04 05:11:00,18.0,14.0,30.16,East,82,0.0,-999.0,83,-99.99,,,-99.99,,2013-03-04 10:11:00,
2013-03-04 05:21:00,17.0,13.0,30.16,East,82,0.0,-999.0,83,-99.99,,,-99.99,,2013-03-04 10:21:00,
2013-03-04 05:31:00,17.0,13.0,30.16,East,82,0.0,-999.0,83,-99.99,,,-99.99,,2013-03-04 10:31:00,
2013-03-04 05:42:00,17.0,13.0,30.16,East,82,0.0,-999.0,83,-99.99,,,-99.99,,2013-03-04 10:42:00,
2013-03-04 05:52:00,17.0,13.0,30.17,East,82,0.0,-999.0,83,-99.99,,,-99.99,,2013-03-04 10:52:00,
2013-03-04 06:01:00,17.0,13.0,30.17,East,82,0.0,-999.0,83,-99.99,,,-99.99,,2013-03-04 11:01:00,
2013-03-04 06:11:00,17.0,13.0,30.17,East,82,0.0,-999.0,83,-99.99,,,-99.99,,2013-03-04 11:11:00,
2013-03-04 06:21:00,17.0,13.0,30.16,East,82,0.0,-999.0,84,-99.99,,,-99.99,,2013-03-04 11:21:00,
2013-03-04 06:32:00,17.0,13.0,30.16,East,82,0.0,-999.0,84,-99.99,,,-99.99,,2013-03-04 11:32:00,
2013-03-04 06:42:00,17.0,13.0,30.16,East,82,0.0,-999.0,84,-99.99,,,-99.99,,2013-03-04 11:42:00,
2013-03-04 06:52:00,17.0,13.0,30.17,East,82,0.0,-999.0,84,-99.99,,,-99.99,,2013-03-04 11:52:00,
2013-03-04 07:01:00,17.0,13.0,30.17,East,82,0.0,-999.0,84,-99.99,,,-99.99,,2013-03-04 12:01:00,
2013-03-04 07:11:00,17.0,13.0,30.17,East,82,0.0,-999.0,84,-99.99,,,-99.99,,2013-03-04 12:11:00,
2013-03-04 07:22:00,16.0,12.0,30.17,East,82,0.0,-999.0,85,-99.99,,,-99.99,,2013-03-04 12:22:00,
2013-03-04 07:32:00,17.0,13.0,30.18,East,82,0.0,-999.0,85,-99.99,,,-99.99,,2013-03-04 12:32:00,
2013-03-04 07:42:00,17.0,13.0,30.18,East,82,0.0,-999.0,85,-99.99,,,-99.99,,2013-03-04 12:42:00,
2013-03-04 07:53:00,17.0,13.0,30.17,East,82,0.0,-999.0,85,-99.99,,,-99.99,,2013-03-04 12:53:00,
2013-03-04 08:02:00,17.0,13.0,30.17,East,82,0.0,-999.0,85,-99.99,,,-99.99,,2013-03-04 13:02:00,
2013-03-04 08:11:00,17.0,13.0,30.17,East,82,0.0,-999.0,85,-99.99,,,-99.99,,2013-03-04 13:11:00,
2013-03-04 08:21:00,19.0,16.0,30.18,East,82,0.0,-999.0,86,-99.99,,,-99.99,,2013-03-04 13:21:00,
2013-03-04 08:32:00,20.0,16.0,30.18,East,82,0.0,-999.0,86,-99.99,,,-99.99,,2013-03-04 13:32:00,
2013-03-04 08:41:00,20.0,16.0,30.18,East,82,0.0,-999.0,86,-99.99,,,-99.99,,2013-03-04 13:41:00,
2013-03-04 08:52:00,21.0,17.0,30.18,East,82,0.0,-999.0,85,-99.99,,,-99.99,,2013-03-04 13:52:00,
2013-03-04 09:01:00,22.0,18.0,30.18,East,82,0.0,-999.0,85,-99.99,,,-99.99,,2013-03-04 14:01:00,
2013-03-04 09:11:00,22.0,18.0,30.18,East,82,0.0,-999.0,85,-99.99,,,-99.99,,2013-03-04 14:11:00,
2013-03-04 09:22:00,24.0,20.0,30.18,NNE,13,0.0,-999.0,83,-99.99,,,-99.99,,2013-03-04 14:22:00,
2013-03-04 09:32:00,24.0,19.0,30.18,West,277,0.0,-999.0,80,-99.99,,,-99.99,,2013-03-04 14:32:00,
2013-03-04 09:42:00,24.0,19.0,30.18,West,277,0.0,-999.0,80,-99.99,,,-99.99,,2013-03-04 14:42:00,
2013-03-04 09:52:00,26.0,19.0,30.18,NNW,333,1.0,-999.0,74,-99.99,,,-99.99,,2013-03-04 14:52:00,
2013-03-04 10:01:00,27.0,19.0,30.18,West,264,1.0,-999.0,72,-99.99,,,-99.99,,2013-03-04 15:01:00,
2013-03-04 10:11:00,27.0,19.0,30.18,West,264,1.0,-999.0,72,-99.99,,,-99.99,,2013-03-04 15:11:00,
2013-03-04 10:21:00,28.0,19.0,30.18,NW,311,1.0,-999.0,69,-99.99,,,-99.99,,2013-03-04 15:21:00,
2013-03-04 10:32:00,29.0,19.0,30.18,West,271,1.0,-999.0,66,-99.99,,,-99.99,,2013-03-04 15:32:00,
2013-03-04 10:42:00,29.0,19.0,30.18,West,271,1.0,-999.0,66,-99.99,,,-99.99,,2013-03-04 15:42:00,
2013-03-04 10:52:00,30.0,19.0,30.18,SSW,205,1.0,-999.0,62,-99.99,,,-99.99,,2013-03-04 15:52:00,
2013-03-04 11:02:00,31.0,19.0,30.18,West,274,1.0,-999.0,60,-99.99,,,-99.99,,2013-03-04 16:02:00,
2013-03-04 11:11:00,31.0,19.0,30.18,West,274,1.0,-999.0,60,-99.99,,,-99.99,,2013-03-04 16:11:00,
2013-03-04 11:21:00,31.0,18.0,30.18,WSW,250,1.0,-999.0,58,-99.99,,,-99.99,,2013-03-04 16:21:00,
2013-03-04 11:31:00,32.0,19.0,30.18,West,269,1.0,-999.0,57,-99.99,,,-99.99,,2013-03-04 16:31:00,
2013-03-04 11:42:00,32.0,19.0,30.18,West,269,1.0,-999.0,57,-99.99,,,-99.99,,2013-03-04 16:42:00,
2013-03-04 11:52:00,32.0,18.0,30.17,WNW,288,0.0,-999.0,56,-99.99,,,-99.99,,2013-03-04 16:52:00,
2013-03-04 12:02:00,33.0,19.0,30.17,West,281,0.0,-999.0,56,-99.99,,,-99.99,,2013-03-04 17:02:00,
2013-03-04 12:11:00,33.0,19.0,30.17,West,281,0.0,-999.0,56,-99.99,,,-99.99,,2013-03-04 17:11:00,
2013-03-04 12:22:00,33.0,18.0,30.16,SW,234,1.0,-999.0,53,-99.99,,,-99.99,,2013-03-04 17:22:00,
2013-03-04 12:32:00,34.0,18.0,30.16,NNW,342,1.0,-999.0,52,-99.99,,,-99.99,,2013-03-04 17:32:00,
2013-03-04 12:42:00,34.0,18.0,30.16,NNW,342,1.0,-999.0,52,-99.99,,,-99.99,,2013-03-04 17:42:00,
2013-03-04 12:52:00,34.0,19.0,30.15,West,281,2.0,-999.0,53,-99.99,,,-99.99,,2013-03-04 17:52:00,
2013-03-04 13:01:00,34.0,18.0,30.15,North,349,1.0,-999.0,51,-99.99,,,-99.99,,2013-03-04 18:01:00,
2013-03-04 13:11:00,34.0,18.0,30.15,North,349,1.0,-999.0,51,-99.99,,,-99.99,,2013-03-04 18:11:00,
2013-03-04 13:21:00,34.0,18.0,30.14,North,355,1.0,-999.0,51,-99.99,,,-99.99,,2013-03-04 18:21:00,
2013-03-04 13:32:00,34.0,18.0,30.14,East,85,1.0,-999.0,52,-99.99,,,-99.99,,2013-03-04 18:32:00,
2013-03-04 13:42:00,34.0,18.0,30.14,East,85,1.0,-999.0,52,-99.99,,,-99.99,,2013-03-04 18:42:00,
2013-03-04 13:52:00,35.0,18.0,30.13,West,275,2.0,-999.0,49,-99.99,,,-99.99,,2013-03-04 18:52:00,
2013-03-04 14:01:00,36.0,18.0,30.13,West,275,1.0,-999.0,48,-99.99,,,-99.99,,2013-03-04 19:01:00,
2013-03-04 14:11:00,36.0,18.0,30.13,West,275,1.0,-999.0,48,-99.99,,,-99.99,,2013-03-04 19:11:00,
2013-03-04 14:22:00,36.0,18.0,30.12,WNW,295,1.0,-999.0,47,-99.99,,,-99.99,,2013-03-04 19:22:00,
2013-03-04 14:32:00,36.0,16.0,30.12,WNW,282,2.0,-999.0,44,-99.99,,,-99.99,,2013-03-04 19:32:00,
2013-03-04 14:42:00,36.0,16.0,30.12,WNW,282,2.0,-999.0,44,-99.99,,,-99.99,,2013-03-04 19:42:00,
2013-03-04 14:52:00,36.0,17.0,30.12,WSW,249,1.0,-999.0,45,-99.99,,,-99.99,,2013-03-04 19:52:00,
2013-03-04 15:01:00,36.0,15.0,30.12,North,9,1.0,-999.0,42,-99.99,,,-99.99,,2013-03-04 20:01:00,
2013-03-04 15:11:00,37.0,17.0,30.11,WNW,292,1.0,-999.0,43,-99.99,,,-99.99,,2013-03-04 20:11:00,
2013-03-04 15:22:00,37.0,17.0,30.11,WNW,292,1.0,-999.0,43,-99.99,,,-99.99,,2013-03-04 20:22:00,
2013-03-04 15:32:00,37.0,19.0,30.11,NW,319,1.0,-999.0,47,-99.99,,,-99.99,,2013-03-04 20:32:00,
2013-03-04 15:42:00,37.0,19.0,30.11,NW,319,1.0,-999.0,47,-99.99,,,-99.99,,2013-03-04 20:42:00,
2013-03-04 15:52:00,36.0,18.0,30.10,NW,325,1.0,-999.0,48,-99.99,,,-99.99,,2013-03-04 20:52:00,
2013-03-04 16:02:00,36.0,18.0,30.10,NNW,340,1.0,-999.0,48,-99.99,,,-99.99,,2013-03-04 21:02:00,
2013-03-04 16:11:00,36.0,18.0,30.10,NNW,340,1.0,-999.0,48,-99.99,,,-99.99,,2013-03-04 21:11:00,
2013-03-04 16:22:00,36.0,18.0,30.10,North,351,1.0,-999.0,47,-99.99,,,-99.99,,2013-03-04 21:22:00,
2013-03-04 16:32:00,36.0,18.0,30.10,NW,318,1.0,-999.0,48,-99.99,,,-99.99,,2013-03-04 21:32:00,
2013-03-04 16:42:00,36.0,18.0,30.10,NW,318,1.0,-999.0,48,-99.99,,,-99.99,,2013-03-04 21:42:00,
2013-03-04 16:53:00,35.0,18.0,30.10,NNW,341,1.0,-999.0,50,-99.99,,,-99.99,,2013-03-04 21:53:00,
2013-03-04 17:01:00,35.0,18.0,30.10,WNW,282,1.0,-999.0,49,-99.99,,,-99.99,,2013-03-04 22:01:00,
2013-03-04 17:12:00,35.0,18.0,30.10,WNW,282,1.0,-999.0,49,-99.99,,,-99.99,,2013-03-04 22:12:00,
2013-03-04 17:22:00,35.0,18.0,30.09,WNW,285,1.0,-999.0,50,-99.99,,,-99.99,,2013-03-04 22:22:00,
2013-03-04 17:32:00,35.0,18.0,30.09,WNW,294,1.0,-999.0,50,-99.99,,,-99.99,,2013-03-04 22:32:00,
2013-03-04 17:42:00,35.0,18.0,30.09,WNW,294,1.0,-999.0,50,-99.99,,,-99.99,,2013-03-04 22:42:00,
2013-03-04 17:52:00,35.0,19.0,30.09,WNW,302,1.0,-999.0,52,-99.99,,,-99.99,,2013-03-04 22:52:00,
2013-03-04 18:01:00,35.0,19.0,30.09,NNW,327,1.0,-999.0,52,-99.99,,,-99.99,,2013-03-04 23:01:00,
2013-03-04 18:11:00,35.0,19.0,30.09,NNW,327,1.0,-999.0,52,-99.99,,,-99.99,,2013-03-04 23:11:00,
2013-03-04 18:22:00,34.0,19.0,30.08,NNW,348,1.0,-999.0,54,-99.99,,,-99.99,,2013-03-04 23:22:00,
2013-03-04 18:32:00,34.0,19.0,30.08,NNW,340,1.0,-999.0,53,-99.99,,,-99.99,,2013-03-04 23:32:00,
2013-03-04 18:42:00,34.0,19.0,30.08,NNW,340,1.0,-999.0,53,-99.99,,,-99.99,,2013-03-04 23:42:00,
2013-03-04 18:52:00,34.0,20.0,30.08,West,274,0.0,-999.0,55,-99.99,,,-99.99,,2013-03-04 23:52:00,
2013-03-04 19:02:00,34.0,20.0,30.08,West,274,1.0,-999.0,55,-99.99,,,-99.99,,2013-03-05 00:02:00,
2013-03-04 19:11:00,34.0,20.0,30.08,West,274,1.0,-999.0,55,-99.99,,,-99.99,,2013-03-05 00:11:00,
2013-03-04 19:21:00,34.0,20.0,30.09,SSW,210,1.0,-999.0,56,-99.99,,,-99.99,,2013-03-05 00:21:00,
2013-03-04 19:32:00,34.0,20.0,30.09,North,353,1.0,-999.0,55,-99.99,,,-99.99,,2013-03-05 00:32:00,
2013-03-04 19:42:00,34.0,20.0,30.09,North,353,1.0,-999.0,55,-99.99,,,-99.99,,2013-03-05 00:42:00,
2013-03-04 19:52:00,34.0,20.0,30.09,North,350,1.0,-999.0,55,-99.99,,,-99.99,,2013-03-05 00:52:00,
2013-03-04 20:01:00,34.0,20.0,30.09,North,350,1.0,-999.0,55,-99.99,,,-99.99,,2013-03-05 01:01:00,
2013-03-04 20:12:00,34.0,20.0,30.09,North,350,1.0,-999.0,55,-99.99,,,-99.99,,2013-03-05 01:12:00,
2013-03-04 20:22:00,34.0,20.0,30.10,SW,236,0.0,-999.0,56,-99.99,,,-99.99,,2013-03-05 01:22:00,
2013-03-04 20:32:00,34.0,20.0,30.10,NNW,327,0.0,-999.0,57,-99.99,,,-99.99,,2013-03-05 01:32:00,
2013-03-04 20:42:00,34.0,20.0,30.10,NNW,327,0.0,-999.0,57,-99.99,,,-99.99,,2013-03-05 01:42:00,
2013-03-04 20:52:00,33.0,19.0,30.10,WNW,293,0.0,-999.0,56,-99.99,,,-99.99,,2013-03-05 01:52:00,
2013-03-04 21:01:00,33.0,19.0,30.10,WNW,292,0.0,-999.0,55,-99.99,,,-99.99,,2013-03-05 02:01:00,
2013-03-04 21:11:00,33.0,19.0,30.10,WNW,292,0.0,-999.0,55,-99.99,,,-99.99,,2013-03-05 02:11:00,
2013-03-04 21:22:00,33.0,19.0,30.11,WNW,294,0.0,-999.0,55,-99.99,,,-99.99,,2013-03-05 02:22:00,
2013-03-04 21:32:00,33.0,18.0,30.11,West,271,0.0,-999.0,54,-99.99,,,-99.99,,2013-03-05 02:32:00,
2013-03-04 21:42:00,33.0,18.0,30.11,West,271,0.0,-999.0,54,-99.99,,,-99.99,,2013-03-05 02:42:00,
2013-03-04 21:52:00,33.0,19.0,30.11,West,271,0.0,-999.0,55,-99.99,,,-99.99,,2013-03-05 02:52:00,
2013-03-04 22:02:00,33.0,19.0,30.11,NNW,338,1.0,-999.0,55,-99.99,,,-99.99,,2013-03-05 03:02:00,
2013-03-04 22:12:00,33.0,19.0,30.11,NNW,338,1.0,-999.0,55,-99.99,,,-99.99,,2013-03-05 03:12:00,
2013-03-04 22:22:00,33.0,19.0,30.12,NW,316,0.0,-999.0,56,-99.99,,,-99.99,,2013-03-05 03:22:00,
2013-03-04 22:32:00,33.0,19.0,30.12,WNW,288,1.0,-999.0,57,-99.99,,,-99.99,,2013-03-05 03:32:00,
2013-03-04 22:42:00,33.0,19.0,30.12,WNW,288,1.0,-999.0,57,-99.99,,,-99.99,,2013-03-05 03:42:00,
2013-03-04 22:52:00,32.0,21.0,30.12,West,279,1.0,-999.0,63,-99.99,,,-99.99,,2013-03-05 03:52:00,
2013-03-04 23:01:00,32.0,21.0,30.12,WNW,300,0.0,-999.0,64,-99.99,,,-99.99,,2013-03-05 04:01:00,
2013-03-04 23:11:00,32.0,21.0,30.12,WNW,300,0.0,-999.0,64,-99.99,,,-99.99,,2013-03-05 04:11:00,
2013-03-04 23:22:00,32.0,22.0,30.12,WSW,254,0.0,-999.0,65,-99.99,,,-99.99,,2013-03-05 04:22:00,
2013-03-04 23:32:00,32.0,22.0,30.12,West,267,1.0,-999.0,65,-99.99,,,-99.99,,2013-03-05 04:32:00,
2013-03-04 23:42:00,32.0,22.0,30.12,West,267,1.0,-999.0,65,-99.99,,,-99.99,,2013-03-05 04:42:00,
2013-03-04 23:52:00,32.0,23.0,30.12,NW,323,0.0,-999.0,69,-99.99,,,-99.99,,2013-03-05 04:52:00,